User: anonymous   Login
Location: Bourg-d�Oueil
(42.8588°N, 0.4991°E)
Time: 19:59:12
(UTC+00:00)
Language:

FENGYUN 1C DEB - Orbit

View from above orbital plane
View from above orbital plane
View from above satellite
View from above satellite

Ground track
Ground track

The orbit data is extracted from the following two-line orbital elements,

1 46451U 99025EZG 22014.63587887  .00001596  00000-0  92986-3 0  9994
2 46451  98.1871 150.5801 0222592 317.7375  52.6359 13.98153250369208
Epoch (UTC): 14 January 2022 15:15:39
Eccentricity: 0.0222592
inclination: 98.1871°
perigee height: 738 km
apogee height: 1062 km
right ascension of ascending node: 150.5801°
argument of perigee: 317.7375°
revolutions per day: 13.98153250
mean anomaly at epoch: 52.6359°
orbit number at epoch: 36920

The dashed part of the orbit path shows where the satellite is in the earth's shadow,  

DLR